DECAYED
Showing default

HJS-6A, 63428 (Decayed)

Orbit data source: Space-Track

HJS-6A, 63428 was a payload satellite owned by Zhongguo Xingwang (CN) in LEO that was launched on Tue, 01 Apr 2025 UTC via a CHANG ZHENG 2D launch vehicle from the Jiuquan Satellite Launch Center, China (JSC). Payload-class satellites include a variety of spacecraft equipped with specific instruments for various scientific and technological missions. These include communications satellites like Starlink; space stations such as the ISS; scientific satellites like the Hubble; Earth observation satellites from companies like Planet Labs, Umbra, and HawkEye 360; GPS; miniature CubeSats for education and research; and military/defense satellites.

Not visible in the next 10 days
Identifier
63428, 2025-067A
Orbit
Decayed
Country
Flag of CNCN / PRC
Related business
Manufacturer
YINNT
Mission
Decayed Civil Communications
Bus & Motor
Unknown
Mass
~300 kg wet, ~300 kg dry
Launch date (UTC)
2025-04-01 (1 year ago)
Launch vehicle
CHANG ZHENG 2D
Launch site
Jiuquan Satellite Launch Center, China (JSC)
Object type
Payload
Rocket body
Debris
Shape & HBR
Box + 2 Pan, 1.1 m
Radar Cross Section
2.320 m², Large (>1 m²)

Expand to show TLE details & history
Last TLE update: 8 months ago

TLE from 8 months ago
0 HJS-6A
1 63428U 25067A   25289.57570714  .15414602  12203-4  10782-2 0  9990
2 63428  54.9608  12.3660 0007619 323.3966  36.6585 16.40289683 30890
Epoch: 2025-10-16T13:49Z
TLE epoch observation values (Epoch: 2025-10-16T13:49:01.096Z)
Latitude
-0.00004°
Longitude
139.77795°
Altitude
162.177 km
Speed
7.812 km/s
True Right ascension
00h 49m 27s
True Declination
0° 00' 00"
Sunlit
Object was in full shadow at epoch
Visualization orbit readout
Latitude
Unknown
Longitude
Unknown
Altitude
Unknown
Speed
Unknown
Apparent Right ascension
Unknown
Apparent Declination
Unknown
Sunlit
N/A
Visualization observer readout
Local Sidereal Time
08:57:36
Azimuth
Unknown
Elevation
Unknown
Doppler factor
Unknown
Orbital elements
Apogee altitude
169.984 km
Perigee altitude
160.013 km
Semi-major axis
6,543.136 km
Eccentricity
0.00076
Inclination
54.9608°
RAAN
12.366°
Arg. of periapsis
323.3966°
True anomaly
36.71067°
Mean anomaly
36.6585°
Eccentric anomaly
36.68458°
Mean motion
4.10076 °/min
Orbital period
87.79 mins
BSTAR
0.0010782
Loading maneuver chart data...
Computing Atmospheric mass density...
Loading historical data...
Loading historical data...
Loading historical data...
Loading historical data...
Loading historical data...
Loading historical data...
Loading historical data...
Other satellites on launch #67 in the year 2025 (2025-04-01 UTC)

Documentation

Showing up to 5 results
|